Regional Weather Roundup
Issued by NWS

Home | Current Version | Previous Version | Graphics & Text | Print | Product List | Glossary On
Versions: 1 2 3 4 5 6 7 8 9 10 11 12 13 14 15 16 17 18 19 20 21 22 23 24 25 26 27 28 29 30 31 32 33 34 35 36 37 38 39 40 41 42 43 44 45 46 47 48 49 50
000
ASUS43 KLMK 240702
RWRKY
KENTUCKY REGIONAL WEATHER ROUNDUP
NATIONAL WEATHER SERVICE LOUISVILLE KY
300 AM EDT THU JUL 24 2014

NOTE "FAIR" INDICATES FEW OR NO CLOUDS BELOW 12,000 FEET
WITH NO SIGNIFICANT WEATHER AND/OR OBSTRUCTIONS TO VISIBILITY.

KYZ001>023-026-027-061>063-070>075-240800-
WESTERN AND SOUTH CENTRAL KENTUCKY

CITY           SKY/WX    TMP DP  RH WIND       PRES   REMARKS
PADUCAH        CLEAR     68  59  73 N9        30.03S
HENDERSON      CLOUDY    66  55  68 N6        30.02S
OWENSBORO      CLOUDY    69  59  70 N7        30.01F
HOPKINSVILLE   CLOUDY    72  69  90 N5        29.99F
BOWLING GREEN  PTCLDY    74  69  85 NW3       29.97F
GLASGOW        CLEAR     68  68 100 W3        29.96F FOG
$$

KYZ024-025-028>034-038-045-046-053-240800-
NORTH CENTRAL KENTUCKY

CITY           SKY/WX    TMP DP  RH WIND       PRES   REMARKS
LOUISVILLE/SDF CLOUDY    71  66  84 N12       29.97F
LOUISVILLE/LOU CLOUDY    71  66  84 N9        29.98F
FORT KNOX      CLOUDY    70  66  85 N5        29.97F
$$

KYZ035>037-039>044-047>052-055>060-089>105-240800-
NORTHEAST KENTUCKY

CITY           SKY/WX    TMP DP  RH WIND       PRES   REMARKS
LEXINGTON      MOCLDY    70  67  90 NW3       29.96F
COVINGTON      CLOUDY    67  62  84 NE14      30.00F
FRANKFORT      CLOUDY    71  67  87 N8        29.95F
$$

KYZ054-064>069-076>088-106>120-240800-
SOUTHEAST KENTUCKY

CITY           SKY/WX    TMP DP  RH WIND       PRES   REMARKS
JACKSON        CLOUDY    68  66  93 S3        29.97F FOG
LONDON         PTCLDY    70  67  90 CALM      29.98F FOG
SOMERSET       CLOUDY    70  70 100 CALM      29.98F FOG
MIDDLESBORO    MOCLDY    69  69  99 CALM      29.99F
MONTICELLO     MOSUNNY   69  69 100 CALM      29.99F FOG
$$




USA.gov is the U.S. government's official web portal to all federal, state and local government web resources and services.